This is the latest recevied weather packets stored in our database for station/object KC5TIL. If no packets are shown the sender has not sent any weather packets the latest 10 day(s).
| Time | Temp. | Humidity | Pressure | Rain* | Wind** | Luminosity | Snow |
|---|---|---|---|---|---|---|---|
| 1778017949 | 33.89° C | 46% | 1004.1 hPa | 0 mm | - | 534 W/m² | - |
| 1778017647 | 33.89° C | 45% | 1004.2 hPa | 0 mm | - | 500 W/m² | - |
| 1778017344 | 33.89° C | 44% | 1004.2 hPa | 0 mm | - | 534 W/m² | - |
| 1778017042 | 33.89° C | 45% | 1004.4 hPa | 0 mm | - | 537 W/m² | - |
| 1778016739 | 33.89° C | 45% | 1004.4 hPa | 0 mm | - | 562 W/m² | - |
| 1778016435 | 33.89° C | 47% | 1004.3 hPa | 0 mm | - | 452 W/m² | - |
| 1778016132 | 33.33° C | 47% | 1004.4 hPa | 0 mm | - | 373 W/m² | - |
| 1778015829 | 33.33° C | 46% | 1004.5 hPa | 0 mm | - | 301 W/m² | - |
| 1778015526 | 33.33° C | 45% | 1004.6 hPa | 0 mm | - | 267 W/m² | - |
| 1778015223 | 33.33° C | 45% | 1004.7 hPa | 0 mm | - | 508 W/m² | - |
| 1778014920 | 33.89° C | 47% | 1004.7 hPa | 0 mm | - | 333 W/m² | - |
| 1778014617 | 33.33° C | 47% | 1004.9 hPa | 0 mm | - | 683 W/m² | - |
| 1778014315 | 33.89° C | 48% | 1005 hPa | 0 mm | - | 304 W/m² | - |
| 1778014011 | 33.89° C | 48% | 1005.3 hPa | 0 mm | - | 645 W/m² | - |
| 1778013710 | 33.33° C | 52% | 1005 hPa | 0 mm | - | 520 W/m² | - |
| 1778013406 | 33.89° C | 50% | 1004.9 hPa | 0 mm | - | 621 W/m² | - |
| 1778013102 | 33.33° C | 51% | 1005 hPa | 0 mm | - | 724 W/m² | - |
| 1778012798 | 32.78° C | 51% | 1005.2 hPa | 0 mm | - | 791 W/m² | - |
| 1778012494 | 32.78° C | 52% | 1005.4 hPa | 0 mm | - | 833 W/m² | - |
| 1778012185 | 32.22° C | 53% | 1005.5 hPa | 0 mm | - | 833 W/m² | - |
| 1778011878 | 32.22° C | 54% | 1005.5 hPa | 0 mm | - | 349 W/m² | - |
| 1778011576 | 32.22° C | 54% | 1005.4 hPa | 0 mm | - | 354 W/m² | - |
| 1778011272 | 32.22° C | 55% | 1005.2 hPa | 0 mm | - | 716 W/m² | - |
| 1778010968 | 32.22° C | 54% | 1005.6 hPa | 0 mm | - | 437 W/m² | - |
| 1778010666 | 32.78° C | 53% | 1005.4 hPa | 0 mm | - | 680 W/m² | - |
* Rain latest hour (hover to see other rain measurements)
** Current wind speed in m/s (hover to see current wind gust speed)